Hourly Data Report for November 24, 2012

BAGOTVILLE A
QUEBEC

48°20'00.000" N
71°00'00.000" W
159.10 m
7060400
71727
YBG

Download Data

Hourly Data (November 2012)
Hourly Data Report for November 24, 2012
TIME
LST
Temp Definition
°C
Dew Point Definition
°C
Rel Hum Definition
%
Precip. Amount Definition
mm

Wind Dir Definition
10's deg

Wind Spd Definition
km/h
Visibility Definition
km
Stn Press Definition
kPa
Hmdx Definition


Wind Chill Definition


Weather Definition


00:00 4.4 2.9 90   11 9 24.1 97.83     Cloudy
01:00 4.2 3.3 94   13 9 24.1 97.79     Rain Showers
02:00 4.8 3.1 89   22 11 24.1 97.79     Rain Showers
03:00 4.8 1.9 81   22 13 24.1 97.77     Rain Showers
04:00 5.0 1.1 76   21 4 24.1 97.71     Cloudy
05:00 3.6 1.8 88     0 24.1 97.72     Mostly Cloudy
06:00 3.6 2.3 91   14 9 24.1 97.73     Cloudy
07:00 3.2 2.3 94   16 4 40.2 97.70     Cloudy
08:00 3.0 2.5 97   12 6 40.2 97.66     Cloudy
09:00 3.2 2.8 97   13 6 16.1 97.61     Cloudy
10:00 3.4 2.7 95     0 8.0 97.61     Rain Showers, Fog
11:00 3.4 1.1 85   24 13 24.1 97.59     Rain Showers
12:00 2.6 -0.8 78   28 13 32.2 97.55     Mostly Cloudy
13:00 2.8 -0.1 81   26 9 40.2 97.50     Mostly Cloudy
14:00 3.4 -0.4 76   30 6 40.2 97.47     Mostly Cloudy
15:00 2.4 -0.5 81   27 19 40.2 97.47     Mostly Cloudy
16:00 0.1 -0.4 96   28 20 4.8 97.54     Snow Showers
17:00 -0.3 -2.1 88   31 20 16.1 97.59   -6 Snow Showers
18:00 -1.0 -3.3 84   30 17 19.3 97.62   -6 Snow Showers
19:00 -1.2 -2.1 94   29 15 16.1 97.62   -6 Snow Showers
20:00 -1.4 -3.5 86   31 13 19.3 97.59   -6 Snow Showers
21:00 -1.7 -3.8 86   29 26 19.3 97.58   -8 Snow Showers
22:00 -2.7 -6.3 76   28 24 24.1 97.57   -9 Snow Showers
23:00 -3.0 -7.0 74   29 33 24.1 97.57   -11 Snow Showers

Notes on Data Quality.

Legend

  • E = Estimated
  • M = Missing
  • NA = Not Available*
  • [empty] = Indicates an unobserved value
Date modified: